When you browse on this site, cookies collect data to enhance your experience and personalize the content and advertising you see.
Visit our Privacy Policy to learn more. By continuing to use the site, you agree to this use of cookies and data.

Previsão horária em Aachen

Hoje, 22 Setembro, Terça-feira

Tempo Temperatura Precipitação Vento Pressão Humidade
00:00 +14°C° 0 mm 1 m/s 744 mmHg 71%
01:00 +14°C° 0 mm 1 m/s 744 mmHg 73%
02:00 +13°C° 0 mm 1 m/s 744 mmHg 75%
03:00 +13°C° 0 mm 1 m/s 743 mmHg 78%
04:00 +13°C° 0 mm 1 m/s 743 mmHg 77%
05:00 +13°C° 0 mm 1 m/s 743 mmHg 76%
06:00 +13°C° 0 mm 1 m/s 743 mmHg 76%
07:00 +16°C° 0 mm 1 m/s 743 mmHg 68%
08:00 +19°C° 0 mm 1 m/s 743 mmHg 61%
09:00 +22°C° 0 mm 1 m/s 743 mmHg 54%
10:00 +23°C° 0 mm 1 m/s 743 mmHg 50%
11:00 +24°C° 0 mm 1 m/s 743 mmHg 47%
12:00 +25°C° 0 mm 1 m/s 743 mmHg 44%
13:00 +25°C° 0 mm 1 m/s 742 mmHg 43%
14:00 +25°C° 0 mm 1 m/s 741 mmHg 43%
15:00 +25°C° 0 mm 1 m/s 741 mmHg 43%
16:00 +23°C° 0 mm 1 m/s 741 mmHg 49%
17:00 +21°C° 0 mm 1 m/s 740 mmHg 56%
18:00 +19°C° 0 mm 1 m/s 740 mmHg 63%
19:00 +17°C° 0 mm 2 m/s 740 mmHg 63%
20:00 +17°C° 0 mm 2 m/s 740 mmHg 64%
21:00 +16°C° 0 mm 3 m/s 740 mmHg 64%
22:00 +14°C° 0 mm 3 m/s 740 mmHg 63%
23:00 +14°C° 0 mm 3 m/s 740 mmHg 61%

Amanhã, 23 Setembro, Quarta-feira

Tempo Temperatura Precipitação Vento Pressão Humidade
00:00 +13°C° 0 mm 3 m/s 739 mmHg 60%
01:00 +13°C° 0 mm 3 m/s 739 mmHg 58%
02:00 +13°C° 0 mm 3 m/s 739 mmHg 57%
03:00 +13°C° 0 mm 3 m/s 739 mmHg 55%
04:00 +14°C° 0 mm 2 m/s 739 mmHg 56%
05:00 +14°C° 0 mm 2 m/s 739 mmHg 56%
06:00 +14°C° 0 mm 2 m/s 739 mmHg 57%
07:00 +16°C° 0 mm 3 m/s 739 mmHg 57%
08:00 +18°C° 0 mm 4 m/s 739 mmHg 57%
09:00 +20°C° 0 mm 4 m/s 739 mmHg 57%
10:00 +21°C° 0 mm 5 m/s 739 mmHg 56%
11:00 +22°C° 0 mm 5 m/s 739 mmHg 55%
12:00 +23°C° 0 mm 6 m/s 739 mmHg 54%
13:00 +23°C° 0.2 mm 5 m/s 738 mmHg 58%
14:00 +22°C° 0.2 mm 5 m/s 738 mmHg 62%
15:00 +22°C° 0.2 mm 5 m/s 738 mmHg 66%
16:00 +20°C° 0.1 mm 4 m/s 737 mmHg 71%
17:00 +19°C° 0.1 mm 4 m/s 737 mmHg 76%
18:00 +17°C° 0.1 mm 3 m/s 737 mmHg 82%
19:00 +17°C° 0.1 mm 3 m/s 737 mmHg 82%
20:00 +17°C° 0.1 mm 4 m/s 737 mmHg 83%
21:00 +17°C° 0.1 mm 4 m/s 736 mmHg 83%
22:00 +16°C° 0.2 mm 5 m/s 736 mmHg 84%
23:00 +16°C° 0.2 mm 6 m/s 735 mmHg 84%

Depois de amanhã, 24 Setembro, Quinta-feira

Tempo Temperatura Precipitação Vento Pressão Humidade
00:00 +16°C° 0.2 mm 7 m/s 735 mmHg 85%
01:00 +16°C° 0.1 mm 7 m/s 735 mmHg 86%
02:00 +15°C° 0.1 mm 6 m/s 735 mmHg 87%
03:00 +15°C° 0.1 mm 6 m/s 735 mmHg 88%
04:00 +14°C° 0.1 mm 6 m/s 736 mmHg 88%
05:00 +13°C° 0.1 mm 5 m/s 736 mmHg 88%
06:00 +12°C° 0.1 mm 5 m/s 737 mmHg 88%
07:00 +12°C° 0 mm 5 m/s 737 mmHg 83%
08:00 +13°C° 0 mm 5 m/s 737 mmHg 78%
09:00 +13°C° 0 mm 6 m/s 738 mmHg 74%
10:00 +14°C° 0 mm 6 m/s 738 mmHg 66%
11:00 +15°C° 0 mm 6 m/s 738 mmHg 59%
12:00 +16°C° 0 mm 6 m/s 738 mmHg 51%
13:00 +16°C° 0 mm 5 m/s 737 mmHg 51%
14:00 +17°C° 0 mm 5 m/s 737 mmHg 50%
15:00 +17°C° 0 mm 5 m/s 736 mmHg 49%
16:00 +15°C° 0 mm 4 m/s 736 mmHg 54%
17:00 +14°C° 0 mm 4 m/s 735 mmHg 59%
18:00 +12°C° 0 mm 3 m/s 735 mmHg 64%
19:00 +12°C° 0.1 mm 3 m/s 734 mmHg 71%
20:00 +12°C° 0.1 mm 3 m/s 734 mmHg 78%
21:00 +12°C° 0.1 mm 2 m/s 734 mmHg 85%
22:00 +11°C° 0.5 mm 3 m/s 734 mmHg 86%
23:00 +11°C° 0.5 mm 3 m/s 733 mmHg 87%

25 Setembro, Sexta-feira

Tempo Temperatura Precipitação Vento Pressão Humidade
00:00 +11°C° 0.5 mm 3 m/s 733 mmHg 89%
01:00 +10°C° 0.2 mm 3 m/s 733 mmHg 88%
02:00 +10°C° 0.2 mm 4 m/s 733 mmHg 87%
03:00 +10°C° 0.2 mm 4 m/s 732 mmHg 87%
04:00 +8°C° 0 mm 4 m/s 732 mmHg 87%
05:00 +7°C° 0 mm 4 m/s 732 mmHg 87%
06:00 +6°C° 0 mm 4 m/s 732 mmHg 88%
07:00 +7°C° 0.1 mm 4 m/s 732 mmHg 85%
08:00 +8°C° 0.1 mm 5 m/s 732 mmHg 83%
09:00 +9°C° 0.1 mm 5 m/s 732 mmHg 80%
10:00 +9°C° 0.3 mm 5 m/s 732 mmHg 79%
11:00 +10°C° 0.3 mm 5 m/s 732 mmHg 77%
12:00 +10°C° 0.3 mm 5 m/s 732 mmHg 76%
13:00 +10°C° 0.4 mm 5 m/s 732 mmHg 77%
14:00 +10°C° 0.4 mm 5 m/s 732 mmHg 78%
15:00 +10°C° 0.4 mm 6 m/s 732 mmHg 79%
16:00 +9°C° 0.3 mm 6 m/s 732 mmHg 82%
17:00 +9°C° 0.3 mm 5 m/s 733 mmHg 85%
18:00 +8°C° 0.3 mm 5 m/s 733 mmHg 87%
19:00 +8°C° 0.1 mm 6 m/s 733 mmHg 86%
20:00 +8°C° 0.1 mm 7 m/s 734 mmHg 85%
21:00 +7°C° 0.1 mm 8 m/s 734 mmHg 84%
22:00 +7°C° 0.1 mm 8 m/s 734 mmHg 85%
23:00 +8°C° 0.1 mm 7 m/s 734 mmHg 86%

26 Setembro, Sábado

Tempo Temperatura Precipitação Vento Pressão Humidade
00:00 +8°C° 0.1 mm 7 m/s 734 mmHg 87%
01:00 +8°C° 0.5 mm 7 m/s 735 mmHg 86%
02:00 +8°C° 0.5 mm 7 m/s 735 mmHg 85%
03:00 +7°C° 0.5 mm 8 m/s 735 mmHg 84%
04:00 +7°C° 0.1 mm 8 m/s 735 mmHg 83%
05:00 +8°C° 0.1 mm 7 m/s 736 mmHg 83%
06:00 +8°C° 0.1 mm 7 m/s 737 mmHg 82%
07:00 +7°C° 0.3 mm 8 m/s 737 mmHg 79%
08:00 +7°C° 0.3 mm 8 m/s 738 mmHg 77%
09:00 +9°C° 0.3 mm 8 m/s 738 mmHg 74%
10:00 +9°C° 0.2 mm 8 m/s 739 mmHg 69%
11:00 +10°C° 0.2 mm 8 m/s 739 mmHg 64%
12:00 +10°C° 0.2 mm 8 m/s 739 mmHg 59%
13:00 +10°C° 0 mm 8 m/s 739 mmHg 56%
14:00 +10°C° 0 mm 7 m/s 739 mmHg 54%
15:00 +10°C° 0 mm 7 m/s 738 mmHg 51%
16:00 +9°C° 0 mm 6 m/s 738 mmHg 57%
17:00 +7°C° 0 mm 6 m/s 738 mmHg 63%
18:00 +6°C° 0 mm 5 m/s 738 mmHg 69%
19:00 +5°C° 0.1 mm 6 m/s 737 mmHg 74%
20:00 +5°C° 0.1 mm 7 m/s 737 mmHg 79%
21:00 +5°C° 0.1 mm 8 m/s 737 mmHg 84%
22:00 +5°C° 0.1 mm 8 m/s 736 mmHg 86%
23:00 +6°C° 0.1 mm 7 m/s 736 mmHg 89%

27 Setembro, Domingo

Tempo Temperatura Precipitação Vento Pressão Humidade
00:00 +8°C° 0.1 mm 6 m/s 736 mmHg 91%
01:00 +8°C° 0.2 mm 6 m/s 735 mmHg 91%
02:00 +9°C° 0.2 mm 6 m/s 735 mmHg 92%
03:00 +9°C° 0.2 mm 6 m/s 735 mmHg 92%
04:00 +9°C° 0.1 mm 6 m/s 735 mmHg 93%
05:00 +8°C° 0.1 mm 5 m/s 735 mmHg 93%
06:00 +8°C° 0.1 mm 5 m/s 736 mmHg 94%
07:00 +9°C° 0 mm 5 m/s 736 mmHg 91%
08:00 +10°C° 0 mm 4 m/s 736 mmHg 87%
09:00 +11°C° 0 mm 4 m/s 736 mmHg 84%
10:00 +11°C° 0.7 mm 4 m/s 736 mmHg 87%
11:00 +10°C° 0.7 mm 5 m/s 736 mmHg 89%
12:00 +10°C° 0.7 mm 5 m/s 736 mmHg 92%
13:00 +10°C° 1.4 mm 6 m/s 736 mmHg 91%
14:00 +10°C° 1.4 mm 6 m/s 735 mmHg 91%
15:00 +10°C° 1.4 mm 7 m/s 735 mmHg 90%
16:00 +10°C° 3.1 mm 8 m/s 734 mmHg 91%
17:00 +10°C° 3.1 mm 9 m/s 734 mmHg 93%
18:00 +8°C° 3.1 mm 11 m/s 733 mmHg 94%
19:00 +9°C° 3.7 mm 11 m/s 733 mmHg 94%
20:00 +9°C° 3.7 mm 11 m/s 733 mmHg 95%
21:00 +11°C° 3.7 mm 10 m/s 732 mmHg 96%
22:00 +11°C° 2.5 mm 10 m/s 732 mmHg 96%
23:00 +12°C° 2.5 mm 9 m/s 732 mmHg 96%
Mostrar mais